Showing default

FORESAIL-1 PRIME, 66778

Orbit data source: Space-Track

FORESAIL-1 PRIME, 66778 is a payload satellite owned by Aalto univ. (FI) in SSO that was launched on Fri, 28 Nov 2025 UTC via an FALCON 9 launch vehicle from the Air Force Western Test Range (AFWTR). Payload-class satellites include a variety of spacecraft equipped with specific instruments for various scientific and technological missions. These include communications satellites like Starlink; space stations such as the ISS; scientific satellites like the Hubble; Earth observation satellites from companies like Planet Labs, Umbra, and HawkEye 360; GPS; miniature CubeSats for education and research; and military/defense satellites.

Loading next visibility...
Identifier
66778, 2025-276DS
Orbit
SSO
Country
Flag of FIFI / FIN
Related business
Manufacturer
Aalto univ.
Mission
Operational Amateur Technology
Bus & Motor
CUBESAT 3U, Unknown motor
Mass
4 kg wet, 4 kg dry
Launch date (UTC)
2025-11-28 (9 months ago)
Launch vehicle
FALCON 9
Launch site
Air Force Western Test Range (AFWTR)
Object type
Payload
Rocket body
Debris
Shape & HBR
Box, 0.2 m
Radar Cross Section
0.035 m², Medium (>0.1 m² and < 1m²)

Expand to show TLE details & history
Last TLE update: 20 hours ago

TLE from 20 hours ago
0 FORESAIL-1 PRIME
1 66778U 25276DS  26238.15434258  .00004089  00000-0  19745-3 0  9999
2 66778  97.4155 310.1497 0001750 176.6046 183.5200 15.19212240 41028
Epoch: 2026-08-26T03:42Z
TLE epoch observation values (Epoch: 2026-08-26T03:42:15.198Z)
Latitude
-0.00014°
Longitude
-79.82502°
Altitude
512.512 km
Speed
7.607 km/s
True Right ascension
20h 40m 35s
True Declination
0° 00' 00"
Sunlit
Object was in full shadow at epoch
Visualization orbit readout
Latitude
Unknown
Longitude
Unknown
Altitude
Unknown
Speed
Unknown
Apparent Right ascension
Unknown
Apparent Declination
Unknown
Sunlit
N/A
Visualization observer readout
Local Sidereal Time
15:15:11
Azimuth
Unknown
Elevation
Unknown
Doppler factor
Unknown
Orbital elements
Apogee altitude
506.392 km
Perigee altitude
503.983 km
Semi-major axis
6,883.324 km
Eccentricity
0.00018
Inclination
97.4155°
RAAN
310.1497°
Arg. of periapsis
176.6046°
True anomaly
183.51877°
Mean anomaly
183.52°
Eccentric anomaly
183.51938°
Mean motion
3.80054 °/min
Orbital period
94.72 mins
BSTAR
0.00019745
Loading maneuver chart data...
Computing Atmospheric mass density...
Loading historical data...
Loading historical data...
Loading historical data...
Loading historical data...
Loading historical data...
Loading historical data...
Loading historical data...

Documentation

Showing up to 5 results
|